Tracking 33188 objects as of 10-Feb-2026
HD Live streaming from Space Station
objects crossing your sky now

STARLINK-34610

Track STARLINK-34610 now!
10-day predictions
STARLINK-34610 is classified as:


NORAD ID: 65034
Int'l Code: 2025-161V
Perigee: 481.3 km
Apogee: 483.3 km
Inclination: 53.2 °
Period: 94.1 minutes
Semi major axis: 6853 km
RCS: Unknown
Launch date: July 30, 2025
Source: United States (US)
Launch site: AIR FORCE EASTERN TEST RANGE (AFETR)
Your satellite tracking list
Your tracking list is empty




NASA's NSSDC Master Catalog

Two Line Element Set (TLE):
1 65034U 25161V   26041.48618732  .00022511  00000-0  76935-3 0  9999
2 65034  53.1581  60.6502 0001411  94.2890 265.8272 15.30221868 30068
Source of the keplerian elements: AFSPC